User: anonymous   Login
Location: NJAA Observatory
(40.6819°N, 74.8979°W)
Time: 12:02:15
(UTC-05:00)
Language:

Landsat 5 - Orbit

View from above orbital plane
View from above orbital plane
View from above satellite
View from above satellite

Ground track
Ground track

The orbit data is extracted from the following two-line orbital elements,

1 14780U 84021A   17344.88340333 +.00000235 +00000-0 +28035-4 0  9998
2 14780 098.0550 100.4556 0089616 308.1788 051.1381 14.91630254326673
Epoch (UTC): 10 December 2017 21:12:06
Eccentricity: 0.0089616
inclination: 98.0550°
perigee height: 530 km
apogee height: 655 km
right ascension of ascending node: 100.4556°
argument of perigee: 308.1788°
revolutions per day: 14.91630254
mean anomaly at epoch: 51.1381°
orbit number at epoch: 32667

The dashed part of the orbit path shows where the satellite is in the earth's shadow,  

DLR